Location: Sternwarte Stuttgart
(48.7670°N, 9.1830°E)
Time: 23:15:15
(UTC+02:00)

ALOS - Visible Passes

Search period start: 14 October 2019 00:00
Search period end: 24 October 2019 00:00
Orbit: 683 x 686 km, 97.8° (Epoch: 14 October)

Date Brightness Start Highest point End Pass type
(mag) Time Alt. Az. Time Alt. Az. Time Alt. Az.
14 Oct 5.8 05:25:56 10° ENE 05:26:40 10° E 05:27:23 10° E visible
14 Oct 2.5 07:00:09 10° NNE 07:04:51 80° ESE 07:09:32 10° S visible
15 Oct 4.9 06:00:39 10° NE 06:04:22 23° E 06:08:04 10° SE visible
16 Oct 3.4 06:37:19 10° NNE 06:41:52 49° E 06:46:24 10° S visible
16 Oct 5.6 19:24:23 10° WSW 19:27:00 15° W 19:29:38 10° NW visible
17 Oct 5.5 05:38:37 10° NE 05:41:11 14° E 05:43:44 10° ESE visible
18 Oct 4.3 06:14:39 10° NNE 06:18:49 31° E 06:22:57 10° SSE visible
18 Oct 5.2 19:00:05 10° SW 19:03:49 23° W 19:07:34 10° NW visible
19 Oct 2.7 06:51:33 10° NNE 06:56:14 68° ESE 07:00:53 10° S visible
19 Oct 6.1 19:40:34 10° W 19:41:32 11° W 19:42:30 10° WNW visible
20 Oct 5.1 05:52:16 10° NE 05:55:40 20° E 05:59:03 10° SE visible
21 Oct 3.7 06:28:46 10° NNE 06:33:13 42° E 06:37:38 10° SSE visible
21 Oct 5.5 19:15:11 10° SW 19:18:18 17° W 19:21:23 10° NW visible
22 Oct 5.6 05:30:35 10° ENE 05:32:27 12° E 05:34:19 10° ESE visible
22 Oct 2.3 07:05:50 10° NNE 07:10:33 88° WNW 07:15:14 10° SSW visible
23 Oct 4.6 06:06:11 10° NE 06:10:07 26° E 06:14:03 10° SSE visible
23 Oct 4.8 18:51:09 10° SSW 18:55:07 27° W 18:59:07 10° NW visible
